Reno, NV

5:43 AM PST on December 10, 2019 (GMT -0800)
Reno-Tahoe International

Weather History for KRNO - July, 2019

Change the Weather History Date:

Thursday, July 18, 2019

  Actual Average Record
Temperature  
Mean Temperature 78 °F 76 °F  
Max Temperature 95 °F 93 °F 104 °F (2006)
Min Temperature 61 °F 58 °F 38 °F (1966)
Degree Days  
Heating Degree Days 0 0  
Month to date heating degree days 0 0  
Since 1 June heating degree days 15 56  
Since 1 July heating degree days 0 0  
Cooling Degree Days 13 11  
Month to date cooling degree days 185 171  
Year to date cooling degree days 401 344  
Since 1 June cooling degree days 387 307  
Growing Degree Days 28 (Base 50)    
Moisture  
Dew Point 41 °F    
Average Humidity 30    
Maximum Humidity 48    
Minimum Humidity 12    
Precipitation  
Precipitation 0.00 in 0.00 in 0.68 in (1911)
Month to date precipitation 0.00 0.09  
Year to date precipitation 8.51 4.37  
Snow  
Snow 0.00 in 0.00 in 0.00 in ()
Month to date snowfall 0.0 0.0  
Since 1 June snowfall 0.0 T  
Since 1 July snowfall 0.0 0.0  
Snow Depth 0.00 in    
Sea Level Pressure  
Sea Level Pressure 29.82 in    
Wind  
Wind Speed 8 mph (WNW)    
Max Wind Speed 26 mph    
Max Gust Speed 34 mph    
Visibility 10 miles    
Events      
T = Trace of Precipitation, MM = Missing Value Source: NWS Daily Summary

Daily Weather History Graph

Daily Weather History Graph

Search for Another Location

Airport or City:

Astronomy

Jul. 18, 2019 Rise Set
Actual Time 5:46 AM PDT 8:23 PM PDT
Civil Twilight 5:15 AM PDT 8:54 PM PDT
Nautical Twilight 4:36 AM PDT 9:33 PM PDT
Astronomical Twilight 3:52 AM PDT 10:17 PM PDT
Moon 9:52 PM PDT (7/18) 7:20 AM PDT (7/18)
Length of Visible Light 15h 39m
Length of Day
14h 37m
Waning Gibbous, 97% of the Moon is Illuminated
Jul 18
Waning Gibbous
Jul 24
Last Quarter
Jul 31
New
Aug 7
First Quarter
Aug 15
Full

Hourly Weather History & Observations

Time (PDT) Temp. Dew Point Humidity Pressure Visibility Wind Dir Wind Speed Gust Speed Precip Events Conditions
12:55 AM 73.0 °F 42.1 °F 33% 29.86 in 10.0 mi NNW 4.6 mph - N/A   Partly Cloudy
1:55 AM 69.1 °F 44.1 °F 40% 29.87 in 10.0 mi Calm Calm - N/A   Partly Cloudy
2:55 AM 66.0 °F 46.0 °F 48% 29.86 in 10.0 mi SSE 3.5 mph - N/A   Partly Cloudy
3:55 AM 64.0 °F 45.0 °F 50% 29.86 in 10.0 mi South 5.8 mph - N/A   Partly Cloudy
4:55 AM 64.0 °F 45.0 °F 50% 29.86 in 10.0 mi South 3.5 mph - N/A   Partly Cloudy
5:55 AM 62.1 °F 43.0 °F 50% 29.88 in 10.0 mi Calm Calm - N/A   Partly Cloudy
6:55 AM 64.0 °F 44.1 °F 48% 29.88 in 10.0 mi South 4.6 mph - N/A   Scattered Clouds
7:55 AM 68.0 °F 43.0 °F 40% 29.89 in 10.0 mi Calm Calm - N/A   Scattered Clouds
8:55 AM 75.0 °F 44.1 °F 33% 29.89 in 10.0 mi Calm Calm - N/A   Partly Cloudy
9:55 AM 79.0 °F 43.0 °F 28% 29.88 in 10.0 mi Calm Calm - N/A   Partly Cloudy
10:55 AM 82.0 °F 39.9 °F 22% 29.86 in 10.0 mi Variable 6.9 mph - N/A   Partly Cloudy
11:55 AM 84.9 °F 36.0 °F 17% 29.84 in 10.0 mi WSW 3.5 mph - N/A   Partly Cloudy
12:55 PM 87.1 °F 39.0 °F 18% 29.82 in 10.0 mi Variable 4.6 mph - N/A   Partly Cloudy
1:55 PM 90.0 °F 39.0 °F 17% 29.80 in 10.0 mi NE 9.2 mph - N/A   Scattered Clouds
2:55 PM 91.9 °F 37.0 °F 15% 29.78 in 10.0 mi Variable 3.5 mph - N/A   Scattered Clouds
3:55 PM 93.9 °F 33.1 °F 12% 29.76 in 10.0 mi West 16.1 mph - N/A   Scattered Clouds
4:55 PM 91.9 °F 33.1 °F 12% 29.75 in 10.0 mi West 18.4 mph - N/A   Scattered Clouds
5:55 PM 90.0 °F 36.0 °F 15% 29.75 in 10.0 mi WNW 19.6 mph 31.1 mph N/A   Scattered Clouds
6:55 PM 87.1 °F 39.9 °F 19% 29.75 in 10.0 mi West 19.6 mph 27.6 mph N/A   Scattered Clouds
7:55 PM 82.9 °F 42.1 °F 24% 29.75 in 10.0 mi WNW 23.0 mph 33.4 mph N/A   Scattered Clouds
8:55 PM 80.1 °F 43.0 °F 27% 29.78 in 10.0 mi NW 12.7 mph 20.7 mph N/A   Scattered Clouds
9:55 PM 77.0 °F 44.1 °F 31% 29.81 in 10.0 mi NNW 8.1 mph 19.6 mph N/A   Scattered Clouds
10:55 PM 75.0 °F 46.0 °F 36% 29.81 in 10.0 mi WNW 6.9 mph - N/A   Partly Cloudy
11:55 PM 73.0 °F 45.0 °F 37% 29.81 in 10.0 mi North 10.4 mph - N/A   Partly Cloudy